User: anonymous   Login
Location: Unspecified
(0.0000°N, 0.0000°E)
Time: 18:54:55
(UTC+00:00)
Language:

PEGASUS - Orbit

View from above orbital plane
View from above orbital plane
View from above satellite
View from above satellite

Ground track
Ground track

The orbit data is extracted from the following two-line orbital elements,

1 42784U 17036V   19340.88821504 +.00000816 +00000-0 +37824-4 0  9998
2 42784 097.3305 034.8201 0011669 356.8176 003.2985 15.22810715136314
Epoch (UTC): 06 December 2019 21:19:01
Eccentricity: 0.0011669
inclination: 97.3305°
perigee height: 489 km
apogee height: 505 km
right ascension of ascending node: 34.8201°
argument of perigee: 356.8176°
revolutions per day: 15.22810715
mean anomaly at epoch: 3.2985°
orbit number at epoch: 13631

The dashed part of the orbit path shows where the satellite is in the earth's shadow,  

DLR